Flag for Germany Weather past 2 weeks in Neu-Ulm, Bavaria, Germany

Now
72 °F

Passing clouds.


Feels Like: 76 °F
Forecast: 56 / 77 °F
Wind: 5 mph from South

Location: Laupheim Airport

Current Time: Jul 25, 2014 at 12:24:21 PM

Latest Report: Jul 25, 2014 at 11:20 AM


Visibility: N/A

Pressure: 29.98 "Hg

Humidity: 61%

Dew point: 57 °F

Location of Neu-UlmLocation

Historic Weather in Neu-Ulm — Graph

°F

Neu-Ulm temperature yesterday

Maximum temperature yesterday: 77 °F (at 3:20 PM)
Minimum temperature yesterday: 57 °F (at 4:20 AM)
Average temperature yesterday: 68 °F

Past Weeks' High & Low Weather Summary

 TemperatureHumidityPressure
High90 °F (Jul 19, 5:20 PM)100% (Jul 11, 3:20 AM)30.21 "Hg (Jul 11, 3:20 AM)
Low54 °F (Jul 10, 11:20 AM)29% (Jul 19, 5:20 PM)29.83 "Hg (Jul 10, 11:20 AM)
Average66 °F73%30.00 "Hg
* Reported Jul 10 11:20 AM — Jul 25 11:20 AM, Neu-Ulm, Weather by CustomWeather, © 2014

Note: Actual official high and low records may vary slightly from our data, if they occured in-between our weather recording intervals... More about our weather records

Advertising

Neu-Ulm weather history for previous 24 hours

 ConditionsComfort  
Time TempWeatherWind HumidityBarometerVisibility
11:20 AM
Jul 25
72 °FPassing clouds.5 mph61%29.98 "HgN/A
10:20 AM70 °FPassing clouds.5 mph69%29.98 "HgN/A
9:20 AM64 °FPassing clouds.6 mph78%29.95 "HgN/A
8:20 AM61 °FPassing clouds.3 mph83%29.95 "HgN/A
7:20 AM57 °FPassing clouds.3 mph88%29.95 "HgN/A
6:20 AM55 °FPassing clouds.3 mph94%29.95 "HgN/A
5:20 AM55 °FPassing clouds.5 mph94%29.95 "HgN/A
4:20 AM55 °FPassing clouds.1 mph94%29.95 "HgN/A
3:20 AM57 °FPassing clouds.2 mph88%29.95 "HgN/A
2:20 AM61 °FPassing clouds.3 mph77%29.95 "HgN/A
1:20 AM61 °FPassing clouds.5 mph77%29.95 "HgN/A
12:20 AM63 °FPassing clouds.1 mph77%29.95 "HgN/A
11:20 PM
Jul 24
64 °FPassing clouds.5 mph73%29.95 "HgN/A
10:20 PM66 °FPassing clouds.5 mph68%29.92 "HgN/A
9:20 PM70 °FPartly sunny.5 mph57%29.92 "HgN/A
8:20 PM73 °FPartly sunny.2 mph47%29.89 "HgN/A
7:20 PM75 °FPartly sunny.3 mph41%29.89 "HgN/A
6:20 PM77 °FPartly sunny.6 mph39%29.89 "HgN/A
5:20 PM75 °FPartly sunny.6 mph39%29.92 "HgN/A
4:20 PM77 °FScattered clouds.6 mph34%29.92 "HgN/A
3:20 PM77 °FPartly sunny.6 mph36%29.92 "HgN/A
2:20 PM75 °FPartly sunny.8 mph41%29.92 "HgN/A
1:20 PM75 °FScattered clouds.10 mph41%29.92 "HgN/A
12:20 PM73 °FScattered clouds.9 mph44%29.92 "HgN/A
Weather by CustomWeather, © 2014

See weather overviewHow to use our weather pages